Theta_e
327 320 317 321 318 316 313 308 298 294 286 286 284 284 288 292 292 292 293 293 293 295 296 300 301 300 299 298 298 299 299 298 298 291 293 304 312 314 314 316 318 320 324 326 328 330 332 335 340 341 342 342 342 342 343 343 343 343 345 345 345 345 346 347 349 347 347 348 348 348 349 348 347 347 346 345 345 345 345 346 347 348 346 344 344 345 345 345 345 345 345 345 345 346 346 346 347
321 318 317 318 316 315 310 300 291 285 284 284 287 286 290 290 293 290 290 292 293 296 297 300 301 302 302 300 299 301 300 300 303 304 306 309 310 311 313 314 315 313 316 317 318 322 324 328 335 339 340 341 342 342 342 343 343 342 343 343 344 344 346 345 346 345 346 347 347 348 347 347 346 347 347 347 346 346 346 345 347 347 346 345 345 346 346 345 344 345 345 345 345 345 345 346 345
319 318 319 316 315 311 305 300 293 283 283 282 283 286 290 291 290 289 292 294 296 296 296 296 298 297 296 297 299 296 293 304 304 304 305 308 306 307 311 312 311 310 311 312 313 317 321 327 333 335 339 340 340 341 341 342 342 341 342 342 342 343 342 343 344 345 345 345 346 348 347 346 347 347 347 347 346 346 346 345 345 346 345 345 346 346 346 345 345 345 346 344 345 346 345 344 345
315 317 315 312 310 301 299 292 286 285 284 280 284 287 290 288 291 291 292 294 294 294 295 296 295 298 296 294 296 297 297 299 302 305 303 303 304 309 309 307 307 306 307 308 309 313 319 327 331 333 335 336 337 338 338 339 340 340 340 342 341 342 341 342 343 343 343 343 344 343 343 344 346 346 346 347 348 346 346 345 345 346 345 346 346 347 347 347 347 347 346 346 345 347 346 344 343
314 319 314 309 304 300 294 290 284 282 284 282 284 285 289 288 291 290 295 294 293 293 295 295 294 298 298 296 297 293 294 298 303 305 304 305 306 305 305 307 303 302 304 305 306 309 314 324 327 330 332 333 333 334 334 335 336 337 338 340 341 341 341 341 341 341 342 342 342 342 344 344 343 344 344 345 345 346 345 345 345 346 345 346 347 347 347 347 347 348 348 348 348 348 348 347 344
310 312 312 312 305 302 292 289 288 286 286 285 286 290 289 289 291 292 294 294 294 295 296 294 293 294 292 293 296 292 297 295 301 303 302 300 304 303 303 305 300 300 301 302 305 306 312 321 322 325 328 329 330 330 331 333 334 335 335 336 338 338 339 340 340 340 340 341 341 341 341 341 343 343 344 344 343 344 344 345 346 345 345 346 347 347 347 347 347 347 347 347 348 347 348 347 347
312 304 301 302 301 298 292 284 285 283 292 288 288 290 291 290 292 293 293 294 296 297 297 296 297 295 291 294 295 297 299 302 301 301 304 303 303 302 302 300 300 299 299 300 302 305 311 318 320 322 323 324 325 326 327 328 329 330 331 333 334 335 336 337 338 339 340 340 340 340 340 341 340 341 340 341 342 343 344 344 345 345 345 345 346 348 348 347 347 347 348 347 347 347 347 347 348
309 305 300 295 291 289 286 285 286 284 291 289 291 290 290 291 290 293 292 291 293 293 295 295 294 292 290 296 289 297 298 298 303 304 301 301 302 301 301 299 299 299 299 299 299 303 313 316 316 317 319 321 322 323 325 325 325 325 326 328 328 329 330 331 333 334 336 337 338 339 340 340 340 340 340 340 340 340 341 342 343 343 344 344 345 345 348 346 349 346 347 347 346 347 347 347 347
306 303 300 296 289 287 284 286 288 288 289 291 292 292 302 290 291 290 290 292 293 293 293 293 293 290 290 291 290 295 296 297 300 304 301 300 299 300 300 299 298 298 299 299 299 300 304 313 314 315 316 317 318 320 322 323 321 322 324 325 326 326 326 326 328 330 331 332 333 334 335 337 338 340 340 340 340 340 340 340 341 343 343 343 344 345 346 346 345 347 348 345 345 346 346 347 347
302 302 294 293 287 288 283 286 285 289 290 291 292 295 293 292 291 291 292 293 292 291 292 293 293 291 291 289 289 292 294 296 298 299 299 299 299 298 298 298 298 298 298 298 299 298 302 311 311 311 312 314 315 317 319 320 320 320 320 321 322 323 323 324 325 325 326 328 330 331 332 333 334 335 338 339 340 340 340 340 340 340 341 342 343 344 345 346 347 344 345 346 345 344 346 347 347
298 295 296 289 285 283 285 286 284 289 291 289 290 291 292 292 290 289 292 292 293 291 292 294 291 290 289 288 290 295 296 295 296 296 298 298 298 298 296 298 298 298 297 298 299 298 297 301 309 309 310 310 311 313 314 316 318 317 318 319 320 320 320 320 321 322 323 325 326 325 325 327 329 331 334 335 338 339 339 339 339 340 340 340 341 342 343 343 344 345 343 344 345 345 345 346 346
296 293 290 284 285 284 283 285 288 288 288 288 294 293 292 293 291 290 291 293 291 291 292 292 290 291 288 287 289 293 294 294 295 296 297 298 296 298 297 295 297 297 298 297 297 297 297 297 300 306 307 308 308 309 310 312 313 313 315 315 316 317 318 318 318 319 320 320 320 320 321 323 326 329 331 332 334 335 336 337 338 339 339 340 340 341 341 342 343 343 343 343 343 343 343 344 346
294 291 287 286 288 286 284 286 287 290 286 289 291 294 291 293 292 291 289 290 289 290 292 292 295 291 287 287 290 292 292 295 295 296 297 295 296 296 296 295 297 297 297 298 296 296 297 296 297 300 303 305 305 306 307 309 310 311 312 313 313 314 314 314 315 316 317 315 316 316 318 320 322 325 327 329 330 332 333 334 335 335 336 338 339 340 340 340 341 341 341 343 343 343 343 343 344
295 291 288 289 286 285 285 285 286 287 287 291 290 293 293 292 292 289 292 290 289 288 292 294 293 292 288 288 290 290 291 295 294 296 294 296 296 295 297 295 296 296 296 296 295 295 295 296 296 297 297 296 296 300 304 306 309 309 309 309 309 310 311 311 311 312 313 312 312 312 314 316 317 319 321 323 326 328 330 331 331 333 334 335 337 339 339 339 339 340 340 340 342 342 342 343 342
299 293 287 286 285 286 285 286 288 283 288 290 295 293 290 292 290 289 290 288 290 292 292 294 294 292 286 287 286 288 291 294 295 297 296 296 296 295 295 295 296 296 295 294 294 294 294 295 295 295 296 295 295 296 296 298 306 307 307 307 307 308 308 308 308 309 309 308 309 309 311 314 313 314 315 316 317 319 322 324 325 329 330 332 333 336 338 338 338 337 338 340 340 341 342 342 342
296 294 288 288 288 284 287 286 285 286 290 290 293 291 291 291 291 290 290 290 290 291 291 290 291 290 290 289 288 291 292 293 295 295 293 294 293 294 292 292 293 294 295 294 294 293 293 294 294 295 295 295 294 295 295 295 302 306 305 306 306 306 306 306 306 307 307 306 307 307 309 309 309 308 312 311 313 316 320 321 322 326 328 330 331 333 334 335 336 337 338 338 339 340 340 340 339
297 293 289 283 288 285 288 287 287 287 288 290 291 292 288 289 292 289 291 290 289 288 288 288 290 291 289 289 291 291 292 298 299 294 293 291 290 289 290 291 292 291 294 294 293 293 292 293 293 294 294 294 294 295 295 295 298 303 301 302 304 304 305 305 304 304 305 303 303 304 305 304 303 303 304 305 308 312 316 316 316 314 317 323 327 330 332 333 334 335 337 338 338 338 336 333 333
294 290 284 287 286 287 289 288 288 289 290 291 292 289 290 288 290 290 290 289 288 288 288 289 290 289 290 291 291 291 291 290 292 290 289 288 289 288 289 289 289 289 290 292 293 293 292 292 292 293 293 294 293 295 296 295 296 299 295 295 296 299 301 303 297 298 302 296 302 299 299 301 301 301 302 307 304 310 312 311 310 311 314 315 315 317 320 324 330 332 332 336 337 336 334 334 333
290 287 286 287 285 290 289 288 289 290 292 290 289 289 291 290 290 290 287 286 286 286 286 286 286 288 289 290 290 290 289 289 290 288 288 288 288 287 287 288 288 288 289 290 292 293 292 291 291 292 293 293 293 292 295 294 293 294 294 294 296 299 297 297 295 296 295 295 296 297 298 298 299 299 299 303 306 310 307 308 308 309 310 311 314 317 319 322 327 330 332 332 333 331 332 333 333
293 288 287 285 289 290 289 290 291 291 291 291 289 289 289 290 290 290 288 286 286 285 285 285 285 286 287 287 288 288 288 289 289 288 287 287 287 287 286 288 287 287 288 289 291 293 291 291 291 291 293 293 292 292 294 292 292 293 293 293 294 294 293 295 294 295 295 295 295 296 296 297 298 296 302 303 305 304 302 305 306 307 308 309 311 314 317 319 322 324 326 328 328 327 332 333 333
294 288 286 291 290 291 294 290 290 290 291 290 289 289 289 290 290 289 287 287 285 286 287 287 286 286 286 287 287 287 287 288 288 287 287 287 288 288 287 288 288 288 289 290 290 291 290 291 290 290 291 292 292 291 291 291 293 291 292 292 293 292 292 293 293 294 294 294 295 295 296 297 296 295 296 296 298 299 298 299 300 301 302 304 310 310 313 315 316 317 320 323 327 329 331 331 332
292 291 288 290 289 292 293 291 291 289 289 289 288 290 291 290 290 288 290 289 288 289 289 288 288 288 287 286 287 286 285 287 286 286 286 286 287 287 287 287 287 287 290 288 288 288 289 290 289 289 290 290 291 290 291 293 292 290 291 291 292 291 292 292 292 292 292 293 294 295 295 295 295 294 294 295 296 296 296 296 298 300 301 302 306 308 310 311 313 315 318 321 324 327 328 330 331
291 287 289 289 289 291 292 291 291 289 289 289 288 291 290 290 289 288 290 289 287 289 290 288 288 288 288 287 286 286 285 286 286 287 287 287 288 288 288 287 287 287 287 287 287 287 291 288 289 289 289 290 290 290 290 289 289 290 290 292 292 290 292 291 290 290 291 293 294 294 295 295 294 294 294 294 294 295 295 296 296 297 299 301 304 305 306 308 310 311 313 315 318 322 325 327 330
291 292 289 292 289 293 291 293 289 288 289 289 289 290 290 288 288 287 288 285 287 288 289 289 288 288 287 286 286 286 286 285 286 287 287 287 288 289 289 289 288 286 287 287 287 287 288 288 288 287 288 291 289 289 289 288 288 290 291 293 290 291 292 289 289 290 291 291 292 293 295 294 293 293 293 294 294 294 295 295 295 296 297 300 303 303 304 306 306 308 310 312 315 318 321 323 327
293 289 291 292 291 291 291 289 288 287 289 288 289 291 290 289 288 288 286 286 287 288 289 288 287 286 286 286 286 286 285 286 286 287 289 287 287 290 288 288 287 287 287 287 287 287 287 289 288 287 287 288 289 289 288 288 288 289 289 288 288 295 289 289 289 290 289 290 290 291 292 292 292 292 292 293 294 294 294 295 295 295 296 298 300 301 303 303 304 306 308 310 312 314 317 319 322
292 293 291 290 291 291 289 290 288 288 289 289 290 288 285 288 288 285 285 286 286 287 287 286 286 285 285 285 286 286 286 286 286 286 287 287 288 286 287 286 287 285 286 286 286 287 286 288 286 286 287 289 290 288 288 288 288 288 288 288 288 291 288 289 289 288 288 288 289 290 291 291 291 291 292 292 292 293 294 294 294 294 295 297 298 298 300 302 303 304 306 308 310 311 312 316 318
292 291 290 291 291 289 290 290 289 288 292 288 290 287 286 288 289 285 286 286 286 287 285 284 285 285 285 285 285 285 286 286 286 286 287 286 286 285 286 285 285 285 287 286 286 286 289 287 286 287 287 290 289 288 288 288 288 287 289 288 288 288 288 289 288 288 288 288 289 289 290 290 291 290 291 291 292 292 293 292 292 294 295 296 296 296 299 300 302 303 305 306 306 305 307 310 312
291 291 290 289 287 287 289 290 288 289 292 287 287 286 287 287 289 287 286 287 287 285 284 284 284 284 285 285 285 285 285 286 286 285 285 284 284 284 284 284 285 285 285 286 286 287 286 286 286 287 287 288 290 287 289 288 288 288 289 288 287 288 288 288 287 287 289 288 289 289 289 289 290 290 290 291 292 292 292 291 292 293 294 295 295 296 297 299 300 302 304 304 302 301 302 305 308
291 290 290 287 287 290 289 290 290 289 291 288 286 287 286 286 286 287 287 287 286 285 284 284 283 284 284 284 284 284 285 285 285 284 284 284 284 285 284 284 285 284 285 286 286 286 285 286 288 288 287 287 287 287 287 287 288 287 288 287 288 289 287 287 287 287 287 288 288 288 288 288 289 289 289 289 290 290 290 290 291 292 293 294 294 296 297 298 299 301 301 300 299 300 301 302 305
293 288 288 289 286 286 289 289 289 290 290 289 290 285 284 287 288 285 287 286 285 284 283 284 284 283 283 283 284 284 284 284 283 284 284 284 284 284 284 284 286 285 286 286 285 285 288 289 289 290 289 287 288 287 289 286 287 287 288 287 287 287 286 286 287 286 286 286 286 286 286 287 287 287 286 286 287 287 288 289 290 291 292 293 294 295 296 297 298 298 298 298 298 298 299 300 303
289 288 285 283 283 283 288 288 289 290 290 289 290 285 288 285 287 286 287 287 285 284 284 284 283 283 283 283 283 283 284 283 284 284 284 284 284 283 284 284 284 284 286 284 285 285 285 285 290 289 289 287 286 286 287 286 288 287 286 286 286 286 286 286 285 285 285 285 285 285 285 285 286 285 285 286 286 286 286 287 288 290 291 292 293 294 295 296 297 297 297 296 297 298 299 300 301
285 287 283 280 284 282 285 289 288 289 290 288 291 285 288 287 287 286 287 286 285 284 284 284 283 283 283 283 283 283 283 283 283 283 283 283 283 283 283 284 284 284 284 284 284 286 284 284 287 286 286 286 285 287 286 286 286 286 285 288 285 285 285 285 284 284 284 284 284 284 284 284 285 285 285 285 285 286 286 286 287 289 291 292 292 293 295 295 296 297 297 296 296 296 298 298 300
281 286 282 282 282 282 284 288 287 288 290 291 290 287 285 286 284 285 286 285 285 284 283 283 283 283 283 283 283 283 283 282 283 283 283 283 282 282 282 283 284 284 284 284 284 284 284 284 286 286 285 285 285 285 286 286 285 285 285 284 285 285 284 284 284 284 284 283 283 283 283 284 284 284 285 285 284 284 284 284 285 286 288 290 292 293 293 295 295 296 296 297 297 296 297 296 297
278 280 283 280 283 283 282 285 285 288 289 286 288 286 288 286 284 285 285 285 284 284 283 283 283 283 283 283 282 282 282 282 283 282 283 282 283 283 282 288 285 284 284 284 283 284 284 284 285 286 286 285 285 285 285 285 285 284 283 283 285 283 283 283 283 283 283 283 283 283 283 284 284 284 284 284 284 284 284 283 283 284 285 287 288 291 292 294 295 295 295 296 296 296 295 294 294
281 281 281 283 280 281 285 283 285 289 289 286 286 285 288 288 284 285 285 285 284 284 284 284 283 283 283 282 282 282 282 282 282 283 283 282 282 283 283 283 283 284 283 282 283 284 284 284 286 284 286 284 284 284 285 284 283 283 283 283 282 282 282 282 283 282 283 282 282 283 283 283 284 283 283 284 283 283 282 282 283 283 284 285 286 288 290 292 294 295 295 295 296 296 294 294 295
284 282 281 281 280 282 280 283 283 288 286 286 285 286 288 289 285 285 285 285 284 284 284 283 283 282 282 282 282 282 282 282 283 283 283 282 283 283 282 282 282 282 282 282 285 283 283 283 284 284 284 284 284 283 283 283 282 282 281 281 281 281 281 282 282 282 282 282 283 282 282 282 283 283 283 283 282 282 282 282 282 283 284 285 285 286 288 290 292 293 293 294 294 294 295 295 295
284 283 282 281 281 283 284 283 284 285 286 286 286 286 286 288 288 286 286 285 284 283 283 283 283 283 282 282 282 282 282 282 284 283 283 283 283 282 282 282 282 282 282 282 282 283 283 283 283 282 283 283 283 282 282 282 280 280 280 280 279 280 281 282 281 281 281 281 282 282 282 282 282 282 282 282 281 282 282 282 282 282 282 283 283 285 287 289 291 293 294 294 293 293 293 294 294
285 283 281 282 281 281 286 285 286 284 285 282 282 282 285 287 288 288 286 284 283 284 283 283 283 283 283 282 281 281 282 282 283 282 282 282 281 282 282 281 285 281 282 281 281 282 282 282 282 282 283 282 282 282 282 281 280 280 279 279 279 279 279 279 279 280 281 282 281 281 281 281 281 281 281 281 281 281 280 280 280 281 281 282 283 284 285 287 288 292 294 293 294 293 292 293 294
282 282 281 281 282 282 285 284 283 284 284 284 285 283 285 287 288 288 285 285 286 286 285 285 284 283 283 282 282 281 281 282 282 283 282 281 281 281 280 281 280 280 280 280 281 281 282 282 282 282 282 282 282 283 282 280 280 281 280 279 279 279 280 280 280 281 281 280 280 280 281 280 280 280 280 281 280 280 280 280 280 281 281 282 281 281 283 284 286 287 290 291 291 293 293 294 293
282 281 282 282 283 282 281 283 282 284 283 283 283 283 284 285 288 288 286 286 286 286 286 286 285 284 283 283 282 282 281 281 281 282 281 281 280 280 279 279 280 280 281 280 281 281 282 282 281 281 281 281 281 282 283 281 281 281 280 280 280 279 279 281 280 280 279 279 279 280 280 280 280 280 280 280 280 280 280 280 281 281 280 281 281 280 281 282 284 287 289 291 292 290 291 291 293
281 283 281 282 282 283 282 282 281 282 283 281 283 283 281 284 286 288 285 286 285 286 285 284 284 284 283 283 283 283 282 282 282 281 281 280 279 279 280 281 279 279 280 280 281 281 283 281 281 281 281 281 281 282 281 280 281 279 279 279 279 279 279 278 278 278 278 279 279 278 279 279 279 279 279 279 280 279 280 280 280 280 280 280 280 280 281 282 285 286 288 290 291 291 290 291 292
279 281 285 286 284 283 282 281 282 279 279 279 281 278 275 277 282 285 282 280 283 284 283 283 284 283 281 281 282 282 283 282 282 282 281 281 280 280 279 280 279 279 280 281 280 281 281 281 281 280 281 281 280 280 280 281 279 278 277 276 275 276 275 276 275 275 276 276 277 278 278 279 279 279 279 279 279 280 279 280 280 279 279 279 280 280 281 283 283 283 285 288 291 293 292 291 290
282 285 282 284 283 283 281 280 282 276 275 281 280 277 277 279 282 286 282 280 282 281 281 284 284 283 282 282 282 282 282 281 280 281 281 280 280 279 279 279 279 279 280 280 280 281 280 281 281 280 280 280 281 280 279 281 278 277 277 276 276 275 275 276 276 277 277 277 278 277 278 278 278 278 278 278 279 279 279 279 279 279 279 279 280 280 280 280 281 282 285 287 289 292 293 290 290
281 282 280 282 283 283 281 282 281 279 279 281 280 281 277 278 282 287 285 282 283 282 281 282 283 283 282 282 282 282 282 282 281 280 280 280 280 280 280 280 279 279 280 280 280 280 280 280 279 280 280 281 280 279 279 279 278 277 277 276 277 276 275 275 276 276 277 278 277 277 277 277 278 278 278 278 278 278 278 278 278 278 278 278 279 279 279 279 281 282 284 285 287 290 292 291 291
281 282 282 282 282 281 280 281 279 278 276 277 279 279 276 274 277 277 279 280 282 283 283 282 282 283 283 283 282 282 282 282 281 280 280 280 280 280 279 279 279 279 279 280 280 280 280 279 280 279 279 279 279 278 280 278 279 278 276 276 275 276 276 277 277 277 276 276 275 276 276 276 277 277 277 277 277 277 278 277 277 277 277 278 279 279 279 279 279 280 281 283 286 287 290 292 292
284 282 281 280 280 280 280 280 279 275 275 276 280 279 274 280 278 279 276 278 280 282 284 284 283 283 283 282 281 281 281 280 280 281 281 280 280 280 279 279 278 279 279 281 280 280 279 279 279 279 278 278 278 277 277 277 277 278 276 275 275 275 275 275 275 275 275 275 274 275 275 275 276 276 276 276 276 277 276 277 277 277 277 277 279 278 278 277 278 279 281 282 283 283 285 290 291
282 281 282 279 278 277 276 276 274 270 268 278 281 279 280 277 279 281 279 281 282 284 283 284 283 282 282 282 281 281 281 280 280 280 280 280 279 280 279 279 279 279 279 279 279 279 278 278 278 277 278 277 278 277 277 276 276 276 276 275 275 274 274 274 274 274 274 274 274 274 274 275 275 275 275 276 276 276 276 276 276 276 276 277 277 277 276 276 277 278 280 280 281 283 286 289 291
282 281 279 282 281 275 270 266 270 269 271 273 276 278 279 274 277 279 283 282 280 285 285 284 283 282 282 281 281 281 281 280 280 279 279 279 278 278 278 278 278 278 279 278 278 278 278 278 277 277 277 277 276 277 276 276 276 275 275 275 275 274 274 274 273 273 273 273 273 273 274 274 274 274 274 274 275 275 275 275 275 275 275 275 275 275 276 276 277 278 278 279 282 285 286 288 291
282 279 277 276 273 271 272 267 269 268 274 274 273 277 276 276 283 283 283 283 284 282 285 286 284 283 282 281 281 281 281 279 279 279 279 279 279 279 278 278 278 277 278 278 278 277 277 277 277 276 276 276 276 276 276 275 275 275 275 275 274 275 275 274 273 273 273 273 273 273 273 273 273 273 273 273 274 274 274 274 274 274 274 274 274 275 275 276 276 277 278 280 282 282 284 288 290
280 282 276 272 270 266 267 269 265 267 273 275 275 277 275 281 282 287 287 290 290 286 283 283 283 283 282 282 281 281 280 280 280 280 279 279 279 279 279 279 278 277 277 278 277 278 277 277 276 276 276 276 276 275 275 275 274 275 275 274 274 274 274 274 273 273 273 273 273 273 273 272 272 272 273 273 274 274 274 274 274 274 274 274 274 275 275 275 276 277 278 279 279 281 283 286 288
281 280 282 280 272 270 271 268 272 277 278 273 274 271 272 273 280 280 288 287 277 276 280 281 280 282 282 282 281 280 279 279 279 279 279 279 279 279 279 278 278 278 278 277 276 276 276 276 276 276 275 275 275 274 274 274 274 274 274 274 274 274 274 273 273 274 273 273 273 272 272 273 272 273 273 273 274 273 273 273 273 273 273 273 273 274 275 275 276 278 279 279 279 281 283 286 289
279 278 279 276 279 279 277 273 269 272 273 274 268 275 275 281 278 278 276 275 277 277 278 279 280 279 280 279 279 279 279 279 279 279 279 279 279 279 278 278 278 277 277 276 276 276 276 276 276 275 275 275 274 275 274 274 274 274 274 273 273 274 275 274 274 273 273 273 272 272 272 272 273 273 273 273 273 273 273 273 273 273 273 273 273 273 273 273 274 276 277 278 279 282 285 287 288
280 280 277 279 280 283 277 270 270 268 267 274 270 276 280 280 286 282 280 276 278 277 276 276 277 278 279 279 279 279 279 279 279 279 279 278 278 278 278 278 277 277 277 277 276 276 276 275 275 275 274 274 274 274 273 273 273 273 273 273 273 272 272 272 272 272 272 272 272 272 272 272 273 273 273 274 273 273 273 273 272 272 272 272 272 272 273 273 275 275 275 276 277 279 280 282 286
281 275 280 280 280 279 275 272 268 268 268 274 271 277 280 277 281 277 276 278 278 277 276 275 276 277 278 279 279 279 279 279 279 278 279 279 278 278 278 278 277 277 277 276 276 276 275 275 275 274 274 274 274 273 273 273 273 273 272 272 272 272 272 272 272 271 271 271 271 272 272 272 272 273 273 273 273 273 272 273 272 271 271 271 271 272 272 273 274 274 274 275 277 278 280 283 286
279 279 281 281 275 274 273 269 270 266 268 270 276 277 281 282 284 282 278 276 279 279 276 275 276 276 277 278 278 278 278 278 278 278 278 278 278 278 278 278 277 277 277 276 276 276 275 275 275 274 274 273 273 273 273 273 273 273 273 272 272 272 272 272 271 272 271 271 271 271 271 272 272 272 273 272 272 272 272 272 271 271 271 271 271 271 272 272 273 273 274 275 277 278 279 281 285
281 281 280 281 279 273 269 275 271 273 273 273 276 279 279 284 282 284 287 281 282 281 275 275 277 278 278 278 278 278 278 278 278 278 278 278 278 278 278 277 277 276 275 275 275 275 274 274 274 273 274 273 272 272 272 272 272 272 272 272 271 272 271 271 271 270 270 270 271 271 271 271 272 272 272 272 272 272 272 271 271 271 270 271 271 271 271 272 272 273 274 275 276 278 278 279 282
278 278 275 275 275 277 276 275 273 273 272 274 275 275 281 286 287 287 286 283 282 281 278 277 278 278 278 278 279 278 278 278 278 278 278 278 278 277 277 276 276 275 276 276 275 274 274 274 273 273 272 272 272 272 271 271 271 271 271 270 270 270 270 270 270 270 270 270 270 271 271 271 272 272 272 272 272 272 272 271 271 270 270 270 270 270 271 272 272 273 274 275 276 277 278 280 282
282 281 280 281 277 273 272 274 275 274 277 274 275 276 283 288 285 287 286 285 283 281 279 278 278 278 278 278 279 279 279 278 278 278 278 278 277 277 276 276 275 275 274 274 274 274 273 273 272 272 272 272 271 271 271 271 271 271 270 270 270 270 270 269 269 269 269 270 270 270 271 271 271 272 272 271 272 272 271 271 270 270 270 270 270 270 271 271 271 272 273 275 276 276 278 281 284
Wind_Speed
4 3 1 1 3 2 2 4 1 2 3 1 0 1 2 0 1 1 0 3 2 4 2 6 7 5 4 7 15 9 5 4 1 3 2 1 3 9 11 11 11 10 10 10 10 9 11 16 19 18 17 17 18 17 16 15 14 11 13 13 12 12 12 10 7 7 8 7 8 10 10 9 11 11 12 11 12 12 12 11 9 8 9 9 10 11 12 12 12 12 12 12 12 9 9 10 9
1 2 3 1 0 1 1 1 3 2 6 3 1 1 1 1 1 3 4 2 1 4 5 12 13 15 15 12 8 5 13 7 3 4 3 3 2 9 11 10 9 9 8 8 9 10 10 12 20 20 19 19 18 18 18 19 19 19 18 16 13 13 13 12 12 11 10 8 9 10 10 12 13 13 12 13 12 12 13 12 12 9 9 12 13 13 13 13 12 12 13 13 13 10 9 9 10
1 2 2 3 3 3 1 3 1 1 4 1 2 3 2 2 3 4 3 5 8 8 6 7 8 6 3 2 16 7 2 8 8 3 3 6 8 8 11 9 6 6 7 7 9 10 9 13 18 20 20 20 19 20 20 20 20 20 20 19 19 16 13 15 15 13 13 13 13 11 9 10 12 13 15 15 14 14 13 14 13 12 12 12 14 15 15 14 13 13 12 13 13 10 9 10 10
2 3 3 3 0 3 1 3 4 7 2 4 0 2 1 4 4 5 3 1 1 3 2 4 7 4 4 13 3 3 5 4 4 2 2 6 2 7 8 6 7 5 9 9 9 10 10 13 20 21 21 21 21 20 20 20 20 20 20 19 19 19 19 17 15 15 16 16 16 14 13 14 15 14 13 15 15 14 17 16 14 14 15 15 15 16 16 16 15 14 14 13 13 11 9 10 10
2 1 2 3 4 0 3 1 4 3 1 4 4 3 2 3 5 3 1 3 2 5 3 4 6 2 6 6 3 2 1 3 4 7 2 2 4 4 5 4 5 9 10 9 10 10 11 19 20 21 22 22 21 21 20 20 19 19 19 19 18 18 18 19 19 18 15 15 15 17 18 16 14 13 13 16 16 16 16 17 18 17 16 15 16 17 17 17 17 15 15 15 15 14 12 9 10
5 3 3 2 1 2 6 2 1 1 4 5 3 2 3 5 5 3 5 7 4 6 6 4 5 4 4 4 3 2 4 3 1 1 1 3 4 5 3 4 7 11 9 8 9 9 11 20 21 22 22 22 22 22 21 21 21 21 20 19 19 20 20 18 18 18 18 18 18 18 18 17 16 15 15 14 15 16 17 17 16 18 18 17 15 17 17 18 19 18 17 16 15 14 12 13 12
1 4 3 4 2 4 3 4 3 2 0 5 1 2 4 4 4 7 4 5 4 11 3 8 13 11 9 1 4 3 1 1 2 1 1 1 3 4 4 5 7 10 9 8 8 9 14 21 23 23 22 22 22 22 22 22 22 22 21 21 21 20 20 19 20 20 19 18 19 19 19 19 18 17 16 15 14 14 16 16 17 17 18 18 17 15 16 18 19 19 18 17 17 15 13 13 12
2 1 1 2 1 3 3 2 2 2 0 3 1 2 3 3 4 5 3 3 3 3 3 6 2 9 2 2 5 1 5 3 2 0 1 1 3 5 5 5 9 9 8 8 8 8 13 22 24 24 24 23 23 22 22 23 23 23 22 22 22 22 21 21 21 20 20 19 20 20 20 20 20 19 18 17 15 15 15 16 17 16 17 18 20 19 16 18 17 19 20 18 18 14 12 12 13
3 4 0 4 3 3 3 2 0 2 3 1 0 4 2 2 4 4 3 1 4 3 4 6 2 8 2 6 4 1 1 4 1 0 1 2 4 4 5 7 9 8 8 8 8 8 9 18 23 24 24 24 24 24 23 23 24 23 23 23 23 23 23 23 22 21 21 21 21 20 20 20 20 20 19 20 19 18 17 16 16 17 17 19 18 18 17 19 21 19 18 20 19 16 14 12 12
1 1 1 2 4 4 2 1 4 2 1 1 1 0 0 1 2 4 8 4 4 5 2 2 2 10 9 9 4 1 1 4 2 2 4 4 4 5 6 7 6 6 7 7 7 7 7 13 20 22 23 23 24 25 24 24 24 24 24 23 23 23 23 23 23 23 23 22 22 22 22 22 21 21 21 20 20 20 20 19 19 18 18 18 19 19 19 19 20 19 19 17 19 19 15 13 12
1 5 2 3 4 3 3 3 2 1 0 3 2 4 3 1 6 4 2 6 0 3 6 8 9 12 4 2 1 1 1 1 3 3 3 3 3 4 5 5 5 5 7 7 6 7 7 8 14 19 21 22 22 23 23 23 23 24 24 24 24 24 24 24 23 23 23 23 23 24 24 23 22 21 21 21 20 19 19 19 20 20 20 20 19 20 21 20 19 22 20 19 18 17 15 14 14
1 1 2 3 3 5 4 6 2 2 3 2 1 1 0 4 5 5 6 9 3 6 3 2 6 6 7 2 0 0 2 3 1 1 2 2 2 2 3 4 5 6 6 5 5 7 7 6 7 12 17 19 19 20 22 23 23 24 23 24 24 24 24 24 24 23 23 24 24 25 24 24 23 23 22 21 22 21 21 20 20 20 20 20 21 21 21 21 21 21 21 18 15 16 17 17 15
2 1 6 6 1 1 3 6 4 0 1 1 3 1 1 2 3 10 4 7 2 4 1 2 15 3 3 2 2 0 1 0 2 2 2 2 2 2 2 3 4 5 6 6 8 8 7 7 7 9 11 15 14 17 18 20 22 23 23 23 24 23 24 24 24 24 24 24 24 24 24 23 23 23 23 23 23 22 21 22 22 22 22 21 20 21 21 22 21 21 22 20 16 15 16 18 19
2 4 2 1 1 5 6 4 0 4 1 2 2 0 1 2 1 3 9 7 1 2 0 3 5 4 3 4 1 2 2 2 1 1 1 1 1 2 2 2 4 6 6 7 10 7 7 6 6 7 8 9 9 10 12 16 18 20 21 22 22 23 23 24 23 23 23 24 25 24 23 21 22 22 23 24 24 24 23 22 22 23 23 22 21 21 20 21 22 23 21 21 18 16 18 19 19
0 2 5 5 1 1 1 5 9 4 4 2 0 1 3 3 1 4 5 8 1 1 2 2 2 1 7 10 5 6 5 3 1 0 0 1 1 1 4 4 5 5 7 8 8 9 8 6 6 6 7 8 8 7 7 9 15 17 19 20 21 21 21 22 22 22 21 21 22 22 22 18 19 20 21 22 23 23 23 22 20 24 25 24 23 22 21 20 21 22 24 22 21 20 19 19 19
4 5 4 3 0 4 2 1 1 4 2 2 2 7 8 3 4 2 2 2 3 2 1 2 3 2 4 9 4 9 6 3 1 0 0 0 1 3 4 5 6 6 5 7 8 8 7 8 7 6 8 9 7 7 7 7 10 14 15 16 18 20 20 20 20 18 17 16 17 17 16 13 14 13 18 14 19 21 20 17 21 24 23 23 23 22 22 22 22 22 21 24 23 20 21 20 19
2 3 3 3 2 1 2 3 5 4 1 2 2 0 3 1 1 2 2 4 8 2 4 2 0 2 3 3 8 7 4 2 2 1 2 0 2 5 5 6 5 5 6 7 6 7 7 7 7 7 7 9 9 8 8 7 8 12 9 11 14 15 17 17 17 14 12 11 14 13 12 10 10 10 12 12 15 13 16 18 21 24 24 24 25 24 23 22 22 24 23 21 23 23 20 20 21
2 2 5 2 2 2 4 4 8 1 5 3 3 3 9 3 1 3 4 11 7 6 7 2 8 6 4 3 4 5 4 3 1 3 3 6 4 6 8 6 7 7 6 6 6 6 7 7 7 7 7 9 9 8 7 7 8 10 9 8 9 10 10 11 10 10 10 10 12 10 9 9 8 8 9 10 10 12 12 18 19 22 23 23 24 24 25 24 23 23 25 25 23 21 20 14 13
3 2 3 3 5 1 4 3 7 4 3 4 2 4 8 6 11 4 6 1 3 7 3 3 5 4 4 6 5 5 3 3 2 3 8 7 7 7 6 4 5 4 6 6 6 7 6 6 6 6 6 6 7 7 6 7 8 8 8 8 8 10 11 10 10 10 8 9 9 8 8 8 8 8 8 10 10 13 13 17 18 20 21 22 22 23 21 22 22 22 22 23 23 22 15 11 11
1 3 1 2 6 1 3 2 4 2 4 4 6 4 3 5 4 3 4 9 2 9 10 0 5 8 5 4 4 4 3 2 1 6 8 6 4 4 4 4 5 4 4 4 5 5 6 6 7 6 6 6 7 7 6 6 6 6 6 7 7 8 9 9 10 11 10 11 11 9 8 9 8 7 8 11 10 8 8 11 15 16 16 17 21 15 17 17 24 22 22 21 16 11 10 10 10
1 3 2 3 4 3 1 3 3 3 4 4 5 2 4 5 4 4 9 6 5 5 10 17 16 14 10 6 5 4 3 3 3 4 5 5 4 3 2 1 1 3 2 3 4 5 6 6 6 7 6 5 6 7 6 6 6 6 6 6 6 6 7 8 8 9 9 11 11 10 11 9 9 8 9 8 7 7 7 7 8 9 9 10 13 11 11 12 13 12 12 13 10 11 11 11 10
2 0 3 4 3 1 4 4 4 3 1 6 3 7 6 3 2 5 14 10 9 10 14 5 15 14 14 11 7 4 4 4 4 4 5 5 4 2 1 2 2 2 3 4 4 4 5 5 4 4 4 4 4 4 5 5 6 6 6 6 6 6 6 6 6 7 8 9 9 10 10 11 11 10 9 9 9 9 9 7 6 6 8 9 9 9 9 10 11 10 11 11 10 10 12 11 11
2 2 1 1 3 3 2 1 3 6 3 5 5 4 5 5 3 5 12 5 3 4 7 8 11 11 8 7 7 6 5 5 5 5 4 4 2 1 1 0 1 2 2 3 3 3 3 4 4 4 4 4 5 4 5 5 6 5 6 6 6 7 6 7 7 7 7 7 7 8 9 10 10 10 11 11 11 9 9 9 9 7 7 7 8 9 10 9 9 10 10 11 11 12 13 12 13
2 0 0 3 2 3 4 4 5 3 9 6 3 4 5 6 4 3 4 3 1 4 12 12 10 9 7 9 7 8 7 6 5 4 4 4 3 2 2 1 0 0 1 2 2 3 3 5 4 4 5 4 5 5 4 6 5 5 6 5 5 6 6 6 6 6 7 7 6 7 6 7 8 9 9 10 11 10 10 9 8 9 9 7 6 7 9 9 9 9 10 11 12 12 13 13 12
1 2 0 0 0 3 1 0 2 3 1 0 4 5 2 5 4 5 3 0 3 7 11 11 10 8 6 7 7 6 6 4 4 4 1 1 1 1 0 1 0 0 1 1 2 3 3 3 4 4 4 4 4 4 4 4 4 4 4 4 5 5 6 5 6 6 6 7 6 7 6 8 8 8 10 9 9 9 10 10 9 9 9 8 8 7 7 9 9 9 9 10 10 12 12 13 13
1 1 0 0 1 1 0 0 1 4 2 2 4 2 2 3 5 2 2 2 4 8 10 10 9 9 8 8 7 6 6 6 5 4 4 3 2 3 1 1 1 1 2 1 1 2 3 3 3 4 4 4 4 4 5 4 5 5 5 4 5 4 5 6 5 6 6 6 6 6 7 7 8 8 9 9 10 10 9 9 10 10 10 8 8 9 8 8 9 9 9 10 11 11 12 12 12
1 2 1 2 2 1 3 6 6 5 1 3 3 2 1 1 2 5 3 4 5 9 10 6 9 9 8 7 6 5 7 7 8 5 3 2 2 3 3 2 2 2 2 0 2 2 3 2 4 4 3 3 3 4 4 5 4 4 5 4 5 5 6 6 5 5 5 5 6 6 7 8 9 9 9 9 9 9 10 10 10 10 10 9 8 9 9 9 8 9 9 10 10 11 11 11 12
1 1 4 3 6 3 2 0 5 2 0 1 4 0 0 2 1 7 11 8 8 13 9 8 7 8 8 7 7 5 6 7 6 5 6 5 5 4 3 3 2 2 1 0 1 2 2 3 3 4 4 4 4 4 4 5 4 4 4 3 3 4 5 5 6 5 6 7 7 8 8 9 8 8 9 9 9 10 9 10 10 10 9 9 9 10 10 10 10 9 9 9 10 10 11 11 11
1 3 4 6 6 4 1 3 2 2 1 3 4 1 1 1 6 2 14 11 9 10 11 9 8 7 7 7 6 5 7 7 5 5 6 5 5 4 4 4 2 1 1 2 2 2 3 3 3 4 4 4 4 4 4 4 4 3 3 3 5 5 6 6 6 6 7 7 8 9 9 10 10 10 10 11 12 11 11 11 11 10 9 9 9 10 12 11 10 10 9 8 9 9 11 11 11
0 4 1 6 8 5 4 1 1 2 1 7 2 6 7 10 6 5 13 14 9 9 10 9 8 7 7 6 6 6 6 5 5 6 5 5 5 4 3 2 3 0 0 1 1 3 3 2 2 2 3 4 4 4 4 3 3 3 3 4 5 6 6 6 7 7 8 8 8 9 10 11 11 11 11 12 11 12 13 12 12 11 10 10 10 9 10 10 10 11 10 9 9 9 10 11 11
0 2 4 1 6 4 2 1 0 3 2 7 0 5 10 5 5 7 11 15 18 15 12 11 9 8 8 7 7 7 7 6 7 6 5 6 4 4 2 2 1 1 0 1 1 2 3 3 2 2 3 4 3 4 3 3 2 3 4 5 6 7 6 6 7 7 7 8 8 8 9 9 10 10 10 10 11 10 11 12 13 12 11 11 10 10 10 10 10 11 9 10 10 9 9 10 10
2 2 4 3 1 6 8 3 5 5 0 2 4 7 13 6 6 12 13 12 12 14 13 12 11 10 9 8 8 7 7 6 6 6 6 6 5 4 4 2 2 1 1 0 1 1 2 3 3 2 3 3 4 3 3 2 2 3 5 6 6 5 5 6 6 7 7 7 7 7 9 11 11 11 11 11 10 11 12 13 13 14 15 13 12 11 10 11 10 11 10 9 11 11 10 11 9
5 2 4 3 1 6 9 1 2 3 1 1 6 9 6 5 2 8 9 13 12 11 11 11 12 12 11 9 9 7 7 6 5 5 6 5 5 5 4 3 2 1 1 0 0 1 2 3 2 3 3 3 3 3 3 3 5 8 8 7 6 6 6 6 6 6 6 7 8 9 10 11 10 10 10 9 10 12 11 12 13 15 15 15 13 12 11 10 10 10 11 10 10 11 11 11 10
2 2 2 3 4 3 5 7 1 1 2 3 1 5 12 2 1 7 8 12 12 11 13 12 12 10 11 9 9 9 8 8 9 8 7 6 6 5 5 4 2 1 1 0 0 0 1 2 3 3 3 3 3 3 3 5 6 6 5 5 5 6 6 6 5 6 7 7 8 9 10 10 9 10 10 11 11 11 11 12 14 15 15 15 14 14 13 11 10 10 12 11 11 11 10 11 12
2 3 4 7 2 5 9 3 3 1 0 4 1 6 16 8 4 9 13 11 13 15 15 15 13 11 11 10 10 10 10 10 10 8 8 7 6 6 4 3 2 1 1 0 0 1 1 2 2 3 3 3 3 3 4 4 4 4 3 6 6 5 5 4 5 6 6 7 7 9 9 9 10 10 11 11 10 10 11 12 12 13 13 13 13 14 13 13 12 12 13 13 10 11 10 11 11
3 4 5 3 6 6 5 6 4 1 6 7 6 10 14 12 5 8 9 12 15 14 6 6 9 10 11 11 10 10 10 11 9 8 8 7 6 6 4 2 1 1 0 0 1 1 1 2 1 2 2 2 2 3 4 5 5 7 8 6 6 8 9 9 8 7 7 7 8 9 9 9 9 9 9 10 10 10 11 11 12 11 12 12 13 14 13 12 14 15 15 14 14 11 10 10 9
1 1 1 7 5 10 5 4 4 1 2 11 12 10 11 15 12 10 14 11 10 8 11 12 12 13 13 12 12 12 12 13 8 9 8 7 6 5 3 2 1 1 0 0 0 1 1 1 1 3 3 3 4 6 6 7 8 7 5 7 9 9 9 7 7 6 6 6 8 8 9 8 9 9 9 10 10 11 11 11 11 12 11 12 13 13 15 16 16 15 14 13 13 13 11 9 8
2 2 3 8 3 9 8 3 1 2 3 5 2 4 9 14 14 8 7 10 16 16 16 15 15 16 14 15 14 13 11 4 6 6 6 5 4 3 2 2 1 2 1 2 1 1 1 1 1 2 3 3 4 5 5 4 3 3 4 5 5 6 7 6 5 6 6 5 6 8 8 8 8 9 10 10 11 11 12 12 11 11 10 10 12 14 15 15 17 15 12 12 11 13 12 8 9
1 3 2 4 8 6 11 3 3 1 2 11 10 10 11 13 16 8 12 17 17 20 22 22 21 19 16 14 14 12 9 10 8 10 8 7 6 4 4 3 3 3 3 3 2 1 1 1 1 2 3 4 4 3 4 4 2 3 4 5 6 7 4 5 6 6 5 5 6 7 7 8 9 10 10 11 11 11 12 13 11 9 9 10 12 14 13 16 13 16 15 14 13 12 13 9 8
3 1 1 8 3 3 8 3 3 1 2 7 7 12 10 10 18 18 12 15 15 16 18 16 14 18 19 19 18 17 15 13 13 13 11 8 6 6 4 4 4 4 4 2 1 0 1 2 3 3 4 3 3 3 3 3 3 4 3 4 6 5 7 7 5 6 5 7 8 7 6 7 10 10 10 10 10 10 11 12 11 10 10 11 11 12 14 14 15 15 14 14 13 14 11 11 7
2 5 4 6 6 6 8 5 4 5 5 1 10 12 8 11 17 13 2 9 10 12 10 12 11 11 9 7 10 12 16 14 13 12 10 8 7 6 7 6 4 4 4 3 1 0 0 2 2 2 3 3 3 3 4 4 4 4 5 5 4 7 5 6 7 7 6 6 8 8 10 9 9 9 9 10 10 11 10 11 10 12 10 10 10 12 14 15 14 13 15 15 15 13 15 12 9
5 7 11 9 6 7 5 4 5 5 4 3 5 11 3 4 8 15 4 0 9 8 10 16 17 12 9 14 17 12 11 11 14 14 13 11 9 7 5 4 5 4 4 3 2 1 0 2 2 2 3 3 3 4 4 4 4 6 7 8 10 9 9 9 10 13 14 13 11 9 8 7 9 9 9 10 11 12 13 12 12 11 12 10 9 11 14 12 11 13 14 14 16 16 15 14 13
1 6 4 6 5 2 3 4 4 5 2 1 3 2 14 2 3 10 4 5 13 5 11 17 14 14 14 17 15 15 15 12 7 8 9 9 7 7 6 6 6 5 4 3 2 0 0 1 2 1 2 3 3 3 4 3 4 4 5 6 6 8 10 9 6 8 9 11 11 12 11 8 8 9 10 9 10 12 11 11 11 12 11 12 11 11 11 13 12 13 12 13 13 14 14 14 14
5 1 3 4 3 1 1 0 2 6 0 6 3 5 10 16 8 15 8 9 13 10 14 15 14 15 18 18 15 15 15 13 11 11 10 10 10 9 9 8 6 7 4 3 1 0 0 2 3 3 2 3 3 3 4 3 4 4 5 6 6 8 9 12 12 10 9 9 11 12 11 11 11 9 10 10 11 11 12 12 11 12 13 13 11 11 11 11 11 12 12 14 14 14 15 16 15
4 2 2 2 1 0 1 0 3 1 5 11 2 4 3 9 5 3 2 6 12 18 17 16 16 17 18 18 15 15 15 13 11 11 11 11 10 9 7 7 6 4 3 4 3 1 1 2 3 3 3 3 4 4 3 4 3 4 5 6 7 6 8 9 10 10 11 10 12 10 11 10 10 9 9 11 10 12 11 12 12 12 12 12 10 11 10 12 15 15 15 12 13 13 14 15 16
2 4 5 5 4 4 2 0 1 4 2 14 10 8 5 18 7 3 2 2 12 15 17 18 18 20 19 15 13 14 11 9 9 11 11 11 10 9 8 5 4 4 4 4 2 1 1 1 4 4 4 3 5 4 3 4 4 4 5 5 8 10 8 9 9 11 10 11 12 14 10 10 10 10 10 9 10 10 11 11 12 14 12 12 11 10 12 13 15 15 13 13 15 16 15 15 15
3 4 1 4 6 4 3 6 3 4 4 14 10 12 9 12 4 9 6 9 11 11 8 8 8 10 11 11 14 15 14 12 10 9 9 10 8 8 6 6 4 1 1 2 1 1 1 2 4 5 5 5 4 4 4 5 4 4 5 6 7 10 11 10 11 11 10 10 12 13 12 12 11 11 9 10 9 10 11 13 12 12 13 14 13 13 11 13 14 14 14 15 16 16 14 15 17
2 1 2 5 3 6 3 4 4 1 9 6 4 10 10 10 6 6 9 5 5 9 11 11 11 14 14 13 15 16 14 12 10 10 10 8 5 5 4 5 4 3 0 1 2 2 2 3 3 5 6 5 4 4 5 5 5 4 4 5 7 8 9 9 11 13 12 13 11 13 11 11 12 12 11 10 11 9 10 10 13 13 13 12 12 11 13 13 12 12 13 13 12 13 14 15 14
4 4 5 2 5 7 6 3 3 6 9 1 2 4 6 17 19 5 7 13 12 10 11 12 10 11 12 13 15 14 12 10 12 11 10 8 9 8 6 5 3 2 4 4 4 3 3 3 4 5 7 5 5 5 5 5 4 4 5 6 7 7 9 9 11 12 12 10 11 12 13 13 12 12 12 12 11 12 10 11 11 11 11 12 13 12 13 11 13 11 14 15 11 13 14 15 13
6 5 4 4 1 1 6 5 3 6 5 2 4 2 10 10 9 16 21 22 19 10 11 10 5 8 12 15 14 12 12 13 13 11 10 10 9 8 7 6 5 4 4 4 4 3 3 3 4 5 8 5 5 5 5 4 4 5 4 6 7 7 8 9 9 11 12 11 10 11 11 11 13 13 13 12 12 12 12 11 13 13 14 14 14 14 14 13 13 13 14 11 12 11 13 17 16
9 2 7 8 7 3 5 2 6 9 9 1 4 2 9 0 5 5 15 13 5 4 6 5 5 6 9 10 10 10 11 10 11 11 11 10 10 9 8 6 5 4 5 4 4 4 3 3 4 6 7 6 5 5 4 4 5 5 5 6 7 6 8 9 9 9 10 11 11 12 13 11 11 14 11 14 13 14 14 12 14 15 13 15 14 14 13 14 15 14 11 11 10 11 13 15 15
2 3 5 4 8 6 7 5 3 6 10 10 4 8 4 9 2 3 4 4 4 3 6 3 6 5 6 8 12 13 13 12 11 11 10 9 9 7 6 5 5 5 5 4 4 3 3 4 5 6 7 6 5 4 4 4 5 5 5 7 8 8 8 9 9 9 10 11 13 14 14 14 13 11 14 13 16 13 14 15 15 14 15 13 13 14 13 14 15 13 11 10 14 11 14 16 14
3 5 6 7 1 5 2 3 0 1 2 18 2 11 9 7 14 12 8 1 9 5 4 3 6 6 8 12 12 13 13 13 12 12 10 9 6 6 7 6 5 5 4 5 5 4 4 4 4 6 7 5 4 4 4 4 5 5 7 7 7 8 9 10 11 13 13 11 13 12 11 15 13 15 13 13 17 13 13 15 14 14 13 14 14 14 15 15 14 12 11 13 13 13 13 16 16
8 2 7 2 2 4 5 5 3 1 6 11 2 13 19 5 18 6 2 6 9 10 9 4 5 6 11 12 12 14 15 14 10 8 8 9 9 9 7 6 6 7 6 4 4 4 3 4 5 6 5 6 6 5 5 5 6 7 7 7 7 8 9 11 10 12 11 12 12 10 12 11 13 14 12 15 15 15 14 14 13 15 13 14 13 13 14 14 13 12 14 13 13 11 14 12 14
3 3 1 3 3 1 1 4 5 2 5 7 9 3 19 11 18 3 4 7 11 14 8 5 8 10 14 11 11 10 8 8 11 12 10 9 8 8 8 8 6 6 5 4 4 3 3 4 5 5 5 5 5 5 5 5 5 6 6 8 8 9 9 9 10 10 12 12 13 13 14 13 15 13 13 16 13 15 13 12 12 13 13 13 13 13 15 14 13 12 13 14 12 13 11 14 14
1 0 1 0 1 3 5 8 4 5 9 4 13 10 19 6 6 5 10 12 12 11 6 12 14 17 14 11 12 14 14 14 12 11 10 9 9 9 9 7 6 6 5 4 4 3 4 5 4 3 3 4 5 6 5 6 6 6 8 9 9 9 9 10 10 11 12 12 12 14 14 16 14 12 13 14 14 15 18 16 13 12 12 13 12 12 12 13 14 12 13 12 12 11 12 14 14
3 2 3 1 2 2 4 2 4 5 5 7 5 13 19 16 10 10 11 11 12 13 14 12 14 15 13 12 14 14 14 13 12 11 10 9 9 7 6 5 5 4 2 2 3 4 4 4 3 3 6 7 6 6 6 6 7 8 8 10 10 10 11 10 11 10 13 12 13 13 12 14 13 15 14 17 20 18 19 19 16 18 16 14 15 13 11 13 12 14 12 12 13 11 13 12 13
13 14 12 14 8 4 3 13 2 4 8 8 4 16 17 19 6 6 8 10 9 12 12 12 15 14 12 12 12 13 13 12 11 10 9 9 7 6 5 4 3 3 3 3 3 3 4 3 3 4 5 5 6 7 6 8 7 8 10 10 11 10 10 10 11 13 12 12 12 12 14 16 15 15 16 17 16 19 17 19 19 18 17 16 13 12 13 12 14 13 12 10 10 14 13 14 13
Wind_Direction
346 6 300 150 78 99 60 0 178 337 60 34 26 13 185 28 189 77 165 329 79 19 10 54 59 39 88 128 117 112 36 101 295 132 176 293 321 1 1 348 347 1 8 4 5 9 8 10 12 22 27 30 31 31 28 28 17 11 358 354 352 340 316 299 268 254 274 280 285 290 295 288 283 283 286 286 290 292 297 302 284 262 262 274 280 281 284 286 286 287 286 287 288 283 284 283 280
13 21 58 59 48 54 233 124 103 5 40 74 225 85 231 286 66 169 175 177 180 119 87 79 74 83 98 117 137 96 38 28 7 76 120 316 274 17 350 346 348 7 7 7 10 12 18 14 22 26 27 27 29 29 27 25 22 19 15 9 359 341 333 322 322 314 295 276 277 286 294 299 295 294 292 288 287 290 291 288 292 287 274 282 286 285 286 288 286 285 286 281 279 276 277 273 276
3 57 48 31 37 70 109 32 296 12 95 113 272 200 316 97 160 219 195 107 115 139 112 82 74 51 35 129 46 27 144 35 13 5 82 348 28 335 337 336 346 7 15 13 17 17 16 18 26 31 31 29 28 27 25 23 21 20 18 16 15 9 359 341 331 321 318 316 301 289 281 275 283 285 296 296 293 292 285 286 285 284 281 281 282 283 285 286 285 281 280 282 280 273 259 268 271
91 28 135 66 210 27 61 31 86 127 116 204 331 282 171 166 204 200 216 190 126 148 102 32 53 322 81 58 120 27 58 46 359 353 41 359 350 288 310 329 347 15 26 22 18 18 17 18 28 32 34 34 32 31 27 24 23 21 18 16 18 17 15 14 0 355 341 329 323 322 310 303 296 297 294 292 301 296 297 293 289 290 290 287 285 283 282 283 285 280 278 275 272 269 250 251 259
72 33 88 105 110 338 106 138 138 104 120 200 153 272 260 203 201 214 8 7 15 161 97 122 87 20 83 85 10 80 281 286 7 17 74 311 314 287 301 340 15 32 28 17 20 19 17 25 29 32 33 33 33 32 30 28 28 27 23 21 19 18 15 13 14 12 3 354 351 339 338 337 321 313 308 305 308 309 305 304 300 298 290 287 286 285 284 284 282 278 275 276 279 284 292 280 254
61 63 18 104 270 157 56 71 52 74 228 148 110 191 219 213 182 166 72 46 29 72 107 83 144 173 43 46 29 46 287 79 229 40 138 346 314 309 321 358 35 40 24 21 18 22 18 27 30 31 31 30 30 29 28 28 28 26 25 25 23 19 16 13 10 7 4 3 1 358 354 348 342 337 334 322 310 309 304 298 300 298 297 294 287 284 283 280 280 279 276 276 278 280 279 276 278
266 50 354 25 32 49 175 125 153 167 243 161 183 181 204 209 205 122 131 71 17 56 349 106 118 107 85 162 58 30 329 291 82 26 56 291 308 342 350 21 40 38 25 21 19 19 19 29 30 30 29 29 28 27 26 25 25 24 24 25 24 22 20 18 14 10 6 1 358 355 354 350 349 347 340 332 325 317 311 308 303 299 296 293 291 291 290 286 280 276 276 275 274 275 272 277 277
49 123 283 111 284 52 56 161 147 166 343 171 188 143 220 229 170 147 154 104 182 87 88 121 150 93 3 105 118 51 5 12 68 338 301 305 344 10 20 26 43 31 23 21 21 21 18 27 30 29 28 27 26 25 25 25 23 22 21 21 20 20 19 18 15 12 9 6 3 0 355 350 346 345 345 340 334 326 322 319 312 304 303 301 297 294 285 285 283 281 279 273 274 272 272 261 263
360 90 321 71 56 31 71 84 169 216 292 227 269 233 268 191 160 118 49 90 87 62 138 157 176 72 154 83 93 192 4 350 333 243 4 1 28 15 31 34 45 31 22 21 20 18 23 25 30 28 26 25 25 24 23 23 23 21 20 19 18 17 16 15 13 13 11 8 6 3 0 357 352 347 344 340 337 335 330 325 318 310 305 300 294 288 287 287 284 278 278 283 278 273 273 267 258
40 65 267 117 132 75 49 317 90 192 207 257 177 8 204 200 105 91 133 77 121 108 315 305 150 117 137 104 111 352 6 320 291 32 3 19 12 24 37 36 43 43 32 22 19 20 24 23 29 30 27 25 23 22 21 20 20 20 19 18 17 16 14 13 12 11 10 8 6 4 2 360 357 354 348 343 340 337 335 331 327 322 314 308 305 294 288 284 284 283 280 277 282 284 274 268 256
272 13 130 73 41 118 145 206 275 328 285 321 311 246 233 137 105 74 91 131 45 121 137 94 69 124 116 110 145 235 315 330 42 41 333 350 359 12 42 31 36 44 38 25 20 23 23 28 26 28 27 25 24 23 21 20 19 18 17 16 15 15 14 12 11 11 9 8 7 5 2 359 357 355 352 349 343 338 335 332 331 326 323 319 313 305 295 289 285 288 283 278 281 273 273 271 263
291 28 1 103 146 151 215 154 200 242 306 339 150 326 234 128 115 99 123 115 123 142 166 62 159 146 88 124 211 261 332 7 323 294 315 325 341 348 35 31 40 38 43 32 26 30 25 28 31 25 25 25 24 21 19 20 20 19 18 16 15 14 12 11 10 11 10 8 6 3 1 358 356 354 353 351 347 342 339 334 330 328 325 321 318 314 308 300 291 284 281 275 269 282 281 274 264
105 93 83 78 192 103 162 114 199 209 348 267 147 101 167 57 120 137 118 96 109 161 285 283 152 114 125 178 219 326 77 283 297 318 319 329 326 334 356 29 35 46 40 35 39 30 26 26 31 27 21 24 22 21 17 18 20 18 17 16 15 14 13 11 9 8 8 7 5 3 360 357 356 355 354 351 349 346 341 338 334 331 326 321 317 315 312 308 299 290 285 278 275 273 273 273 271
114 183 118 130 48 126 133 168 14 148 240 220 266 295 40 80 59 157 131 95 9 104 298 113 112 126 84 88 216 189 208 254 286 305 312 314 324 5 13 17 34 35 32 34 36 30 29 26 27 29 25 23 21 18 16 12 16 18 17 17 15 13 12 11 9 8 7 4 2 1 358 357 358 356 354 353 351 347 344 341 338 334 329 324 318 310 309 310 308 299 287 279 275 269 268 267 264
98 144 85 112 41 64 222 128 192 142 181 188 254 82 66 25 107 83 109 117 183 215 303 48 159 45 199 156 212 195 201 204 232 290 320 324 335 25 32 26 31 30 28 29 28 28 24 21 21 25 28 23 21 19 17 8 10 15 14 14 13 13 11 10 9 7 4 2 360 357 354 354 356 355 354 353 350 348 346 343 340 339 336 332 326 320 311 306 304 304 299 285 278 274 267 265 265
145 85 84 99 35 131 229 104 45 116 199 154 332 127 79 8 26 75 303 191 150 343 73 187 11 218 165 164 183 160 177 177 200 332 312 319 337 43 41 30 29 26 27 26 24 21 19 17 12 14 18 18 18 14 13 10 4 13 10 10 9 8 7 6 5 5 1 358 355 353 350 352 352 351 351 351 347 345 343 343 344 342 338 333 328 324 320 315 310 304 298 295 285 275 272 270 267
54 81 53 33 123 115 215 148 144 183 238 232 239 314 112 341 343 76 16 38 98 14 54 341 274 29 101 135 132 133 149 124 75 198 221 77 49 42 35 33 21 31 20 21 24 11 14 18 8 14 10 12 8 6 5 5 1 7 6 6 4 5 2 2 0 359 357 355 354 350 349 351 350 348 347 345 344 341 341 346 344 340 338 335 334 328 323 318 314 306 300 291 291 284 273 271 268
58 66 119 51 177 114 199 169 188 199 132 210 158 169 111 135 212 179 66 41 73 69 67 27 47 51 78 98 100 114 88 108 190 186 104 63 44 44 37 17 22 22 13 10 7 8 10 10 9 6 7 7 5 3 358 356 355 360 358 360 359 0 358 359 358 357 354 352 349 348 347 345 345 344 340 339 339 337 341 343 340 339 338 337 335 332 329 324 318 313 310 303 295 291 278 265 265
91 114 83 186 191 226 146 199 193 131 190 174 142 170 147 196 148 192 90 159 120 78 24 17 71 49 61 80 92 104 103 116 130 120 81 71 56 58 50 21 30 14 17 8 360 0 6 358 4 3 358 2 3 2 355 353 354 353 352 354 353 354 354 354 354 354 352 348 346 345 343 338 337 337 336 332 330 331 334 337 337 337 337 335 332 328 325 324 320 317 311 306 301 294 284 269 264
210 110 73 258 203 235 219 181 192 243 144 134 128 212 159 178 144 137 141 172 203 153 144 60 150 153 157 149 122 131 110 108 107 92 87 85 73 72 48 32 22 20 9 8 350 343 356 2 353 358 353 353 6 356 353 352 352 349 345 348 349 348 350 349 349 349 347 345 344 342 340 334 333 331 326 327 327 328 329 332 332 333 333 332 330 327 326 325 325 320 317 312 303 293 282 271 259
250 69 151 216 179 123 231 167 236 201 145 145 141 165 121 188 178 140 138 117 251 255 206 161 178 171 167 167 158 141 144 137 107 95 99 84 58 47 72 38 50 352 343 336 4 344 347 352 353 350 344 349 357 350 352 345 346 346 343 341 344 343 341 343 344 342 340 339 341 339 336 334 331 330 329 327 323 321 323 326 328 331 331 328 329 327 326 326 325 321 317 313 304 298 285 275 262
111 29 191 157 129 97 227 206 144 135 151 119 143 139 182 113 91 147 158 172 210 208 203 233 161 158 156 157 170 154 159 151 129 111 105 107 111 102 349 354 342 2 348 22 333 331 335 337 339 333 334 332 342 340 335 329 343 343 339 332 340 337 337 336 335 335 334 336 335 333 332 333 333 330 329 327 326 325 324 321 319 318 324 324 327 322 323 324 321 318 316 313 307 300 291 284 268
330 326 328 219 191 142 236 191 193 132 131 147 159 203 97 159 174 192 184 196 282 284 132 140 146 143 143 137 143 146 150 135 132 131 140 144 183 203 218 243 32 354 333 333 306 307 322 334 332 337 335 328 334 333 331 339 340 335 333 333 346 337 339 341 337 331 326 324 324 325 329 328 328 327 327 326 324 324 319 320 321 321 315 316 320 319 318 318 316 317 314 312 309 303 297 288 279
110 211 4 236 188 190 172 199 151 158 128 194 204 104 143 136 169 184 219 341 300 89 115 128 131 132 134 138 159 150 144 136 139 147 162 163 165 199 194 105 269 251 15 317 312 310 323 326 324 336 327 332 325 329 331 337 333 335 330 331 330 315 333 332 325 325 320 319 315 313 314 315 318 320 318 319 321 322 317 314 313 316 315 309 308 313 313 313 313 312 310 310 311 308 304 299 287
39 329 199 280 6 280 233 239 144 135 175 90 96 155 215 172 177 130 215 141 109 109 115 121 127 130 141 144 156 156 143 138 143 172 194 236 194 223 106 253 262 31 21 309 298 322 303 297 318 316 315 311 308 310 323 313 320 326 326 327 326 321 335 324 323 323 326 321 320 319 319 320 320 317 316 314 311 311 312 313 312 310 309 307 310 307 306 307 309 309 310 309 309 308 305 302 297
151 230 51 287 142 325 249 74 256 188 132 130 93 291 330 170 125 63 190 140 127 124 114 127 132 136 153 163 164 162 162 168 172 171 187 198 212 108 217 204 204 160 220 237 267 264 270 291 305 305 306 300 309 322 319 330 327 334 325 327 320 336 334 332 330 325 314 315 316 320 322 319 315 313 310 308 312 309 308 307 309 308 305 304 307 306 304 297 300 305 304 305 305 306 304 301 300
151 278 252 288 265 18 188 172 208 222 169 195 159 242 322 248 358 245 190 176 148 125 127 135 144 155 164 170 175 178 166 182 181 184 164 198 214 159 197 210 193 216 223 251 260 264 281 321 312 307 311 318 332 338 331 331 324 330 327 328 336 342 338 332 329 321 319 327 323 323 324 321 317 312 309 306 303 305 309 311 307 304 302 302 300 299 300 294 291 292 299 300 304 303 300 300 298
358 245 309 302 333 272 188 193 188 166 207 152 123 117 280 251 24 232 165 170 167 139 147 152 158 165 168 175 177 185 181 193 188 151 178 175 189 189 185 171 206 224 194 266 258 286 320 319 311 322 333 335 342 336 328 325 325 318 320 323 331 339 340 336 330 332 338 336 337 334 329 326 318 311 308 309 307 307 306 303 301 300 293 293 298 298 296 293 290 287 286 292 293 295 295 295 295
297 26 325 299 356 353 285 190 197 179 227 134 138 75 284 226 225 220 157 152 160 149 154 165 171 173 176 178 181 183 193 193 186 176 187 189 191 190 158 203 193 196 245 224 298 330 328 316 336 320 335 338 334 327 318 301 297 303 326 340 347 350 344 341 341 347 346 344 342 341 338 337 336 335 332 327 322 313 308 305 302 294 291 290 289 289 292 291 291 288 286 286 288 291 292 293 294
335 36 7 334 356 337 322 327 33 148 245 167 167 281 234 228 215 142 150 153 149 151 169 178 180 180 184 184 184 194 202 194 194 197 193 196 194 193 154 211 208 188 269 301 4 343 309 323 317 315 329 336 318 306 307 298 303 327 353 352 354 355 349 348 350 349 346 344 344 342 343 343 342 337 331 325 323 319 314 309 305 301 296 293 289 288 286 288 285 286 288 288 285 288 292 294 297
112 274 66 40 1 281 307 83 332 164 159 189 90 237 266 248 239 173 164 162 163 173 180 184 186 188 188 193 192 192 204 197 192 196 200 193 190 178 176 223 223 207 242 355 340 296 322 317 320 329 319 312 302 299 303 306 330 351 0 1 3 358 351 350 348 342 342 341 341 342 341 340 335 329 325 320 319 317 314 311 306 304 301 294 288 287 287 282 281 282 284 287 286 282 283 289 292
13 36 305 325 111 277 299 270 173 191 317 156 156 266 260 258 239 175 169 172 172 175 183 187 189 190 193 193 196 195 200 203 202 198 193 190 174 180 194 192 192 180 163 225 279 322 325 315 311 315 304 293 290 290 298 308 339 3 13 11 358 352 345 347 344 344 340 335 336 334 340 339 334 331 326 324 325 331 327 321 318 314 309 301 294 288 281 280 280 278 277 275 285 285 285 286 288
347 71 267 284 334 271 335 350 310 315 72 305 175 247 307 300 245 170 174 171 186 182 187 192 193 195 194 197 196 197 196 210 217 208 204 189 193 182 193 187 179 173 191 180 257 295 320 305 307 299 289 284 281 296 312 328 5 18 14 1 348 343 347 346 342 337 330 335 341 340 341 335 331 327 325 331 331 322 317 315 313 312 312 310 303 294 285 279 275 276 275 273 268 277 283 285 286
315 25 224 201 246 293 292 303 356 347 157 258 278 230 252 209 186 168 180 183 182 195 196 197 196 194 198 197 199 197 197 193 199 203 206 200 195 192 192 181 171 174 180 181 215 250 293 292 295 286 291 291 304 322 341 3 15 15 3 354 341 341 345 337 329 334 338 342 338 337 334 330 327 327 330 329 320 318 317 317 315 314 311 307 304 301 294 289 278 272 274 267 268 270 275 283 287
241 302 323 307 278 210 248 288 266 52 31 224 278 253 267 263 172 191 193 186 193 203 197 196 194 194 200 202 201 202 199 199 203 198 194 198 195 193 186 166 159 135 154 211 325 333 299 284 275 291 296 307 315 334 354 8 11 7 359 348 343 336 331 328 336 340 342 335 333 330 330 331 329 330 327 322 319 315 312 308 304 303 303 301 299 298 296 294 287 277 271 271 260 262 268 275 279
221 206 227 224 289 271 196 241 273 203 275 274 231 244 264 271 221 204 198 195 200 211 200 202 206 207 206 206 208 204 205 207 203 198 198 200 197 181 175 168 142 160 188 354 327 299 266 267 267 280 284 288 305 346 354 360 8 6 354 345 335 340 345 344 345 340 337 334 332 332 330 324 324 321 320 320 314 308 305 302 301 304 307 308 304 300 296 295 292 286 277 269 267 264 264 269 272
139 136 180 247 230 281 265 228 264 329 291 247 249 243 258 268 256 212 201 188 213 213 210 208 206 205 206 207 207 207 206 203 200 198 196 201 203 189 157 119 99 40 229 251 231 256 243 241 320 338 318 334 5 2 5 3 3 354 348 348 345 340 331 330 321 320 319 318 323 326 323 321 319 319 316 313 309 308 305 305 305 308 305 302 301 298 301 298 293 286 279 272 269 270 267 263 262
189 229 239 277 192 257 273 289 324 301 170 289 222 237 255 261 265 235 185 179 210 207 212 214 209 209 208 205 205 209 208 212 199 205 219 226 232 200 140 130 128 122 231 224 218 244 250 336 20 330 335 0 10 12 1 360 11 348 326 324 325 315 314 308 307 307 309 311 314 315 315 314 315 314 312 312 310 310 310 306 301 294 298 297 299 300 298 297 296 291 284 279 267 269 268 257 265
109 205 232 306 266 241 279 295 339 308 137 261 275 262 256 263 267 239 177 196 212 208 205 206 201 205 208 204 207 205 201 206 196 200 203 209 211 191 157 171 193 196 204 208 218 265 327 3 4 2 359 5 360 347 0 342 327 333 341 316 323 310 266 266 288 290 290 303 313 311 313 315 320 318 316 314 312 311 308 303 296 295 297 306 304 299 296 294 291 291 286 279 279 266 266 256 258
161 127 268 250 225 23 306 290 4 336 168 291 286 281 271 269 267 254 203 202 219 216 215 219 209 207 204 202 198 198 200 196 198 193 200 203 201 186 175 188 201 201 218 210 242 285 313 3 2 10 356 343 330 330 341 320 321 324 311 296 297 278 295 294 274 267 283 308 316 316 308 316 315 309 306 302 301 298 295 293 293 296 300 301 297 296 294 290 291 289 288 280 271 272 265 266 227
255 186 210 258 272 238 194 267 324 290 297 261 310 287 261 224 253 272 224 220 226 227 220 229 228 225 216 221 222 210 199 195 194 194 198 196 198 198 185 188 186 205 199 201 208 219 352 344 345 2 330 326 320 332 326 316 326 328 320 309 291 300 291 301 315 314 316 315 311 322 321 317 307 301 300 302 302 300 296 292 294 292 291 293 295 292 290 285 285 293 296 291 278 268 270 265 253
312 223 200 226 234 264 273 324 359 359 319 341 49 326 293 281 240 262 262 278 233 227 210 222 220 210 197 209 214 207 214 206 193 192 190 190 189 186 188 201 209 206 206 208 196 202 84 329 343 336 321 323 333 320 315 331 342 337 335 337 336 334 324 332 332 326 324 326 321 309 300 300 304 302 303 306 304 305 301 298 293 292 290 290 290 285 284 289 299 299 294 293 287 274 265 264 264
32 272 189 221 234 228 285 319 32 303 246 276 62 222 285 174 283 256 234 222 242 224 221 230 218 211 208 216 208 202 204 205 210 195 187 181 193 175 195 202 206 200 215 205 206 193 300 285 299 318 309 314 317 306 311 331 336 330 324 318 311 311 313 306 305 303 305 309 313 311 308 304 300 304 307 304 306 302 298 295 293 290 289 288 288 288 294 297 293 290 292 289 290 288 273 264 260
231 249 122 106 117 189 216 133 179 250 288 272 198 183 271 284 230 258 250 236 251 244 236 233 223 214 215 216 206 203 203 200 192 195 187 186 182 183 190 204 192 202 197 175 186 229 217 278 297 308 312 310 300 290 306 325 322 316 315 311 309 314 314 308 314 311 305 303 304 304 306 306 305 304 301 302 299 300 298 294 293 291 288 284 283 282 285 289 289 285 284 285 287 283 276 269 266
220 214 112 92 91 161 145 242 275 261 12 293 166 155 258 252 271 355 41 238 258 255 243 233 224 221 220 216 205 206 204 197 187 186 187 187 187 193 191 189 213 200 189 177 192 207 224 279 304 315 314 302 288 287 309 316 306 301 299 302 307 303 304 304 308 306 306 305 299 299 299 298 299 297 294 297 296 296 296 296 292 287 285 284 282 281 279 286 289 289 288 285 287 293 291 278 261
272 144 95 79 66 62 49 342 14 327 47 278 259 171 218 275 183 173 348 238 259 252 245 235 221 216 216 209 205 206 203 196 196 189 185 189 189 192 195 184 174 202 198 181 186 151 279 316 311 306 305 290 279 291 306 304 293 297 298 304 306 307 309 304 305 304 304 309 305 305 303 301 302 299 297 291 292 292 293 292 294 292 289 287 282 278 284 285 285 282 280 287 290 287 285 283 273
120 80 59 4 41 35 25 62 89 42 259 248 243 180 174 283 176 178 175 219 211 240 265 254 233 225 219 208 201 202 199 195 193 193 191 190 191 185 169 179 200 225 214 164 184 245 280 294 283 292 282 285 281 291 295 284 284 284 295 302 303 303 307 307 309 304 303 305 304 303 304 303 300 297 297 296 289 291 292 293 291 288 288 289 287 286 283 285 282 280 283 283 278 273 277 279 276
115 62 88 1 348 4 36 344 43 154 266 252 248 188 188 217 268 248 227 247 216 212 240 238 221 214 206 199 203 202 196 192 188 188 192 186 173 184 165 190 211 226 141 187 226 258 263 265 269 279 286 277 275 276 271 274 279 291 291 294 296 298 303 306 305 302 304 302 301 300 301 300 298 298 296 294 294 291 290 288 289 288 287 284 281 279 279 278 278 280 279 275 270 275 279 278 273
85 77 36 65 276 15 313 39 300 195 230 201 74 150 307 232 244 258 267 248 251 229 231 237 221 215 202 203 204 199 192 185 187 188 181 181 179 180 190 209 208 230 212 206 217 227 244 256 260 266 277 272 271 268 267 273 292 301 301 294 292 295 299 298 298 297 298 298 300 300 303 302 302 301 302 300 294 297 293 290 289 286 285 282 281 278 275 274 277 274 274 269 271 280 281 280 277
122 155 144 89 351 40 267 261 238 297 270 254 100 95 250 281 277 220 241 251 245 241 237 251 236 213 199 200 199 192 189 191 189 182 182 181 183 187 188 190 200 209 211 207 216 226 237 251 261 259 268 274 268 268 269 280 285 289 284 281 288 294 294 295 293 293 295 295 294 293 295 296 299 296 298 295 297 296 291 285 286 284 283 283 283 281 280 277 273 272 269 269 277 277 277 276 274
198 118 145 180 149 162 260 228 255 271 278 196 254 68 238 79 237 223 213 245 326 270 270 257 225 207 205 203 194 187 187 194 185 184 185 182 187 184 185 190 197 203 204 206 213 225 233 248 256 263 273 274 272 274 284 292 298 292 287 282 286 292 292 292 289 289 293 295 295 292 291 291 289 294 292 294 294 293 288 287 287 287 285 283 281 281 277 276 274 272 267 274 276 273 272 270 269
144 165 83 87 222 122 216 209 229 318 334 308 158 214 197 223 98 301 228 304 286 302 276 241 223 195 177 177 185 190 192 190 187 185 184 189 184 183 180 186 200 198 198 202 218 229 229 243 251 256 263 270 270 285 295 298 294 287 285 288 288 289 289 290 290 289 287 288 290 291 291 290 289 289 290 291 291 287 286 288 287 283 284 281 282 282 282 281 279 272 273 274 275 275 279 283 281
208 113 209 209 142 143 290 353 85 74 65 265 152 277 262 316 266 205 226 244 266 286 281 223 213 194 182 197 193 191 192 189 187 186 182 183 184 183 184 192 194 194 188 203 223 221 224 245 254 265 269 273 288 299 299 296 290 291 290 289 290 290 289 287 287 289 289 287 286 286 288 290 290 289 289 290 291 285 282 284 286 285 281 280 277 276 274 271 266 271 275 276 273 276 276 277 279
101 194 234 145 139 109 126 220 323 125 219 269 121 271 288 75 294 59 21 256 257 251 246 219 215 195 198 207 196 190 192 192 182 176 180 182 181 184 192 195 191 187 190 209 235 234 227 232 245 261 277 304 310 313 310 307 303 297 293 290 285 281 285 286 287 290 291 291 288 285 285 288 290 288 285 289 288 286 284 284 283 284 280 276 273 274 271 270 272 271 270 268 268 271 272 272 269
142 186 252 135 233 220 302 88 271 217 245 272 268 264 268 221 261 296 239 212 244 242 223 194 210 211 214 207 201 193 182 175 181 185 186 182 180 187 189 194 195 189 190 206 234 247 243 249 248 250 282 294 293 299 300 298 292 294 293 291 288 286 280 279 281 282 287 284 288 290 290 288 289 288 289 288 286 286 283 282 279 279 279 276 274 273 274 270 267 269 267 268 264 263 270 275 273
95 45 35 176 109 186 132 199 201 118 263 313 282 333 280 253 193 198 251 205 225 235 189 210 208 210 208 200 194 188 188 191 185 185 184 181 185 188 187 185 183 193 204 216 231 244 250 250 256 288 296 293 303 305 303 300 297 291 292 291 288 284 286 286 286 290 290 286 288 291 292 293 289 289 286 285 284 287 291 291 284 279 278 276 273 271 267 267 267 262 265 264 262 261 267 271 273
186 207 263 349 207 217 115 290 163 180 238 227 307 297 284 279 179 199 224 203 213 214 210 203 215 218 208 202 191 192 193 189 188 181 180 182 186 189 190 180 180 183 187 221 237 246 253 254 295 324 313 311 311 304 304 302 301 295 292 292 291 293 292 289 289 285 287 289 290 291 289 287 288 287 292 294 293 292 294 291 291 290 285 281 278 274 269 269 265 266 264 266 270 268 266 266 264
178 187 208 193 166 213 209 258 115 215 236 241 178 260 276 276 142 170 207 210 206 223 198 200 217 213 202 201 200 192 191 195 180 177 175 180 185 186 176 163 160 171 223 236 248 246 257 290 331 318 301 298 302 306 307 304 299 293 293 295 297 297 292 291 292 295 290 291 291 291 296 297 293 297 294 292 295 295 292 294 294 290 287 286 277 270 269 266 268 269 270 267 269 269 266 268 268